Aeroporto :
LOGIN :

Iscrizione | Disclaimer

   EN    FR    IT 

 










Sommario :    VFR   VFR Marginale   IFR   IFR Intensivo   IFR Molto Intensivo
Visibilità : 
Base nubi : 
>= 8 km
>= 3000ft
5 / 8 km
1000 / 3000 ft
1500m / 5 km
500 / 1000 ft
800 / 1500m
200 / 500 ft
< 800m
< 200 ft
Simboli :   Temporali  Nebbia  Neve Forte  Precipitazioni Forti  Vento > 20 kt
SIGMETs :   Varie  Temporali  Ghiacco  Turbolenza  Onda orograficha  Ceneri Vulcaniche







- Altitudine del aeroporto : 538 ft
- Codice IATA : TNF
- Carte del aeroporto


LFPN - Toussus Le Noble

ULTIMO METAR :
  • 220000Z AUTO 33004KT CAVOK 14/11 Q1012

METARs OBSOLETI :
  • 212330Z AUTO 33005KT CAVOK 14/12 Q1012
  • 212300Z AUTO 32005KT CAVOK 15/12 Q1012
  • 212230Z AUTO 36005KT 340V070 CAVOK 15/12 Q1012
  • 212200Z AUTO 34003KT CAVOK 16/12 Q1012
  • 212130Z AUTO 36005KT 350V060 CAVOK 16/12 Q1012

TAF AMD TAF LFPN
Valido dal 21 a 18 ore il 22 a 03 ore UTC


211836Z 2118/2203 VRB03KT CAVOK
PROB30
TEMPO 2118/2120 -TSRA SCT040CB
PROB30
TEMPO 2200/2203 4000 BR
ATIS : +33 1 39 56 54 70
Nessun NOTAM noto per questo aeroporto.



MetMap, La meteo Aeronautica in un colpo d'occhio ! - Copyright ORBIFLY Dicembre 2007 - Disclaimer

ORBIFLY MET'MAP TEAM :

Programmazione e sviluppo : Alexandra Zaïnal
Concezione e sviluppo : Baudouin d'Aumeries
Co-Programmazione e sviluppo : Marc-Olivier Méhu
Supporto tecnico e logistico : Manuel Goepfert
Aiuto per la traduzione : Arnaldo La Scala

Contatto : metmap@orbifly.com




FONTI E CREDITI :

   NOAA